GW2442 Weather Reports


time (UTC)temp
F
wind
direction
speed
knots
gust
knots
rain 1hr
in
rain 24hr
in
rain mn
in
humidity
%
barometer
mb
20260506202731 59 117 0.0 2.6 0.00 0.29 0.29 99 1004.0
20260506202227 59 185 0.0 1.7 0.00 0.29 0.29 99 1004.1
20260506201724 59 240 0.9 1.7 0.00 0.29 0.29 99 1004.1
20260506201220 59 156 0.9 0.9 0.00 0.29 0.29 99 1004.1
20260506200717 59 161 0.9 1.7 0.00 0.29 0.29 99 1004.2
20260506200214 59 160 0.9 1.7 0.00 0.29 0.29 98 1004.2
20260506195710 59 134 0.0 0.9 0.00 0.29 0.29 99 1004.2
20260506195207 59 85 0.9 2.6 0.00 0.29 0.29 98 1004.1
20260506194659 59 164 0.9 2.6 0.00 0.29 0.29 98 1004.3
20260506194155 59 181 0.9 2.6 0.00 0.29 0.29 98 1004.3
20260506193653 59 163 0.9 0.9 0.07 0.29 0.29 98 1004.3
20260506193149 59 137 0.0 1.7 0.07 0.29 0.29 98 1004.1
20260506192646 59 75 0.0 0.9 0.00 0.28 0.28 98 1004.6
20260506192142 59 96 0.0 1.7 0.00 0.28 0.28 98 1004.4
20260506191640 59 157 0.9 2.6 0.00 0.28 0.28 98 1004.7
20260506191135 59 125 0.0 1.7 0.00 0.28 0.28 98 1004.8
20260506190633 59 165 0.9 1.7 0.00 0.28 0.28 98 1004.6
20260506190130 59 159 0.9 4.3 0.00 0.28 0.28 98 1004.7
20260506185627 59 106 1.7 4.3 0.00 0.28 0.28 98 1004.7
20260506185123 59 163 0.9 1.7 0.05 0.28 0.28 98 1004.8
20260506184621 59 151 0.9 1.7 0.05 0.28 0.28 98 1004.9
20260506184118 59 349 2.6 2.6 0.00 0.27 0.27 98 1004.8
20260506183614 59 116 0.9 0.9 0.00 0.27 0.27 98 1005.0
20260506183110 59 45 1.7 4.3 0.07 0.27 0.27 98 1005.1
20260506182608 59 145 0.0 1.7 0.07 0.27 0.27 98 1005.0
20260506182105 59 24 1.7 1.7 0.00 0.26 0.26 98 1005.0
20260506181603 59 97 1.7 1.7 0.05 0.26 0.26 98 1005.2
20260506181059 59 163 1.7 5.2 0.05 0.26 0.26 98 1005.1
20260506180556 58 189 0.0 1.7 0.00 0.25 0.25 98 1005.3
20260506180053 58 83 1.7 1.7 0.00 0.25 0.25 98 1005.3
20260506175549 58 159 0.9 2.6 0.00 0.25 0.25 98 1005.2
20260506175045 58 111 0.0 1.7 0.07 0.25 0.25 98 1005.3
20260506174544 58 100 0.0 4.3 0.00 0.24 0.24 98 1005.3
20260506174040 58 125 0.0 1.7 0.00 0.24 0.24 98 1005.3
20260506173538 58 57 0.9 1.7 0.07 0.24 0.24 98 1005.4
20260506173034 58 146 0.0 2.6 0.07 0.24 0.24 98 1005.4
20260506172532 58 138 0.9 2.6 0.05 0.23 0.23 98 1005.4
20260506172028 59 166 0.9 0.9 0.12 0.23 0.23 98 1005.1
20260506171525 58 133 0.0 0.9 0.07 0.22 0.22 97 1005.3
20260506171023 58 119 0.0 4.3 0.05 0.21 0.21 97 1005.2
20260506170520 58 64 0.9 0.9 0.05 0.21 0.21 97 1005.3
20260506170017 58 70 1.7 5.2 0.00 0.20 0.20 97 1005.4
20260506165515 58 91 0.0 5.2 0.07 0.20 0.20 97 1005.5
20260506165006 58 110 0.0 2.6 0.07 0.20 0.20 97 1005.4
20260506164503 58 114 0.9 2.6 0.05 0.19 0.19 97 1005.2
20260506164000 58 89 0.9 2.6 0.12 0.19 0.19 97 1005.6
20260506163455 58 155 0.9 2.6 0.07 0.18 0.18 97 1005.3
20260506162949 58 118 0.0 2.6 0.00 0.17 0.17 97 1005.5
20260506162448 58 113 0.9 1.7 0.05 0.17 0.17 97 1005.4
20260506161940 59 11 1.7 5.2 0.00 0.16 0.16 97 1005.4
20260506161438 59 122 0.9 2.6 0.00 0.16 0.16 97 1005.4
20260506160934 59 91 0.9 1.7 0.07 0.16 0.16 97 1005.6
20260506160432 59 154 0.9 0.9 0.07 0.16 0.16 96 1005.6
20260506155929 59 170 1.7 4.3 0.05 0.15 0.15 96 1005.4
20260506155426 59 81 0.0 1.7 0.17 0.15 0.15 96 1005.7
20260506153548 59 169 0.9 1.7 0.05 0.10 0.10 95 1006.3
20260506153045 59 345 0.9 4.3 0.00 0.09 0.09 95 1006.1
20260506152542 60 122 0.0 1.7 0.07 0.09 0.09 95 1006.1
20260506152040 60 68 0.9 1.7 0.12 0.09 0.09 95 1005.9
20260506151538 60 140 0.0 1.7 0.05 0.08 0.08 95 1006.0
20260506151035 60 327 0.9 1.7 0.00 0.07 0.07 95 1005.8
20260506150531 60 138 0.9 0.9 0.07 0.07 0.07 95 1006.3
20260506150023 59 88 0.0 1.7 0.07 0.07 0.07 95 1006.1
20260506145519 59 123 0.0 0.9 0.00 0.06 0.06 95 1006.1
20260506145017 59 132 0.0 0.0 0.05 0.06 0.06 95 1006.0
20260506144513 59 121 0.0 0.9 0.05 0.06 0.06 94 1006.1
20260506144011 59 125 0.0 0.9 0.07 0.05 0.05 94 1006.3
20260506143509 59 100 0.9 0.9 0.00 0.04 0.04 94 1006.2
20260506143007 59 144 0.9 0.9 0.05 0.04 0.04 94 1006.3
20260506142504 59 113 0.0 0.9 0.07 0.03 0.03 93 1006.5
20260506142002 60 137 0.0 0.9 0.00 0.02 0.02 93 1006.6
20260506141500 59 142 0.0 1.7 0.00 0.02 0.02 92 1006.5
20260506140958 60 151 0.9 2.6 0.05 0.02 0.02 92 1006.3
20260506140455 60 272 0.9 1.7 0.05 0.02 0.02 91 1006.4
20260506135951 60 77 0.9 1.7 0.00 0.01 0.01 91 1006.6
20260506135449 60 119 0.0 0.9 0.00 0.01 0.01 91 1006.5
20260506134945 60 123 0.0 1.7 0.07 0.01 0.01 90 1006.5
20260506134441 60 102 0.0 0.9 0.07 0.01 0.01 89 1006.5
20260506133938 60 119 0.0 0.9 0.00 0.00 0.00 88 1006.6
20260506133435 61 128 0.0 1.7 0.00 0.00 0.00 88 1006.6
20260506132931 61 116 0.0 0.0 0.00 0.00 0.00 87 1006.9
20260506132429 61 79 0.9 0.9 0.00 0.00 0.00 86 1006.7
20260506131926 61 101 0.9 1.7 0.00 0.00 0.00 85 1006.8
20260506131423 62 184 0.9 2.6 0.00 0.00 0.00 83 1006.6
20260506130920 62 136 0.9 4.3 0.00 0.00 0.00 81 1006.6
20260506130416 63 3 3.5 5.2 0.00 0.00 0.00 80 1006.7
20260506125914 63 161 1.7 6.1 0.00 0.00 0.00 78 1006.5
20260506125412 63 156 0.9 2.6 0.00 0.00 0.00 78 1006.3
20260506124910 63 143 0.9 0.9 0.00 0.00 0.00 79 1006.3
20260506124407 63 155 2.6 4.3 0.00 0.00 0.00 79 1006.4
20260506123905 63 176 1.7 1.7 0.00 0.00 0.00 79 1006.3
20260506123403 63 143 0.0 1.7 0.00 0.00 0.00 80 1006.4
20260506122900 63 106 0.9 0.9 0.00 0.00 0.00 79 1006.3
20260506122356 63 134 0.0 1.7 0.00 0.00 0.00 79 1006.2
20260506121855 63 112 0.9 0.9 0.00 0.00 0.00 79 1006.3
20260506121352 63 80 0.9 2.6 0.00 0.00 0.00 79 1006.4
20260506120848 63 33 0.9 4.3 0.00 0.00 0.00 78 1006.5
20260506120346 63 117 0.0 0.9 0.00 0.00 0.00 79 1006.5
20260506115843 63 151 0.9 1.7 0.00 0.00 0.00 78 1006.6
20260506115342 63 104 0.0 0.0 0.00 0.00 0.00 79 1006.6
20260506114839 63 178 0.9 1.7 0.00 0.00 0.00 78 1006.7
20260506114337 62 153 0.9 2.6 0.00 0.00 0.00 78 1006.5
20260506113835 63 169 0.9 2.6 0.00 0.00 0.00 78 1006.5
20260506113332 62 103 2.6 2.6 0.00 0.00 0.00 78 1006.6
20260506112829 62 31 0.9 1.7 0.00 0.00 0.00 78 1006.5
20260506112326 63 114 0.0 0.9 0.00 0.00 0.00 78 1006.8
20260506111824 63 92 0.0 1.7 0.00 0.00 0.00 78 1006.7
20260506111322 63 129 0.9 6.1 0.00 0.00 0.00 78 1006.6
20260506110819 63 112 0.0 1.7 0.00 0.00 0.00 78 1006.5
20260506110316 62 334 3.5 6.1 0.00 0.00 0.00 77 1006.4
20260506105812 63 216 0.9 2.6 0.00 0.00 0.00 77 1006.2
20260506105309 62 156 0.9 2.6 0.00 0.00 0.00 77 1006.3
20260506104807 62 110 0.0 1.7 0.00 0.00 0.00 77 1006.3
20260506104304 62 88 0.9 1.7 0.00 0.00 0.00 77 1006.1
20260506103802 62 108 0.0 2.6 0.00 0.00 0.00 77 1006.2
20260506103259 62 100 0.0 0.9 0.00 0.00 0.00 77 1006.1
20260506102756 62 103 0.0 1.7 0.00 0.00 0.00 76 1006.0
20260506102254 62 115 0.0 1.7 0.00 0.00 0.00 76 1005.9
20260506101751 62 359 1.7 1.7 0.00 0.00 0.00 76 1006.0
20260506101247 62 97 0.0 1.7 0.00 0.00 0.00 76 1006.0
20260506100745 62 177 1.7 4.3 0.00 0.00 0.00 76 1006.1
20260506100243 62 158 0.9 2.6 0.00 0.00 0.00 76 1006.2
20260506095742 62 99 0.0 1.7 0.00 0.00 0.00 75 1006.1
20260506095238 62 77 0.9 0.9 0.00 0.00 0.00 75 1006.0
20260506094735 62 111 0.9 1.7 0.00 0.00 0.00 75 1006.1
20260506094233 62 211 1.7 4.3 0.00 0.00 0.00 75 1005.9
20260506093732 62 169 0.0 1.7 0.00 0.00 0.00 74 1006.2
20260506093228 62 31 0.9 1.7 0.00 0.00 0.00 74 1006.1
20260506092726 62 122 0.0 1.7 0.00 0.00 0.00 74 1006.0
20260506092224 62 84 0.9 0.9 0.00 0.00 0.00 73 1006.1
20260506091721 62 96 0.0 1.7 0.00 0.00 0.00 73 1005.9
20260506091218 62 125 0.0 1.7 0.00 0.00 0.00 73 1006.1
20260506090716 63 116 0.9 1.7 0.00 0.00 0.00 73 1006.1
20260506090212 63 158 0.9 0.9 0.00 0.00 0.00 72 1006.2
20260506085710 63 94 0.9 1.7 0.00 0.00 0.00 72 1006.3
20260506085205 63 172 0.9 2.6 0.00 0.00 0.00 72 1006.2
20260506084702 63 73 0.0 0.9 0.00 0.00 0.00 71 1006.4
20260506084159 63 113 0.9 1.7 0.00 0.00 0.00 71 1006.4
20260506083655 62 118 0.9 1.7 0.00 0.00 0.00 71 1006.4
20260506083154 62 179 0.0 2.6 0.00 0.00 0.00 71 1006.4
20260506082650 62 160 0.9 0.9 0.00 0.00 0.00 71 1006.4
20260506082145 62 140 0.9 1.7 0.00 0.00 0.00 71 1006.4
20260506081643 62 122 0.0 0.9 0.00 0.00 0.00 72 1006.3
20260506081141 62 110 0.0 0.9 0.00 0.00 0.00 72 1006.4
20260506080638 62 107 0.9 1.7 0.00 0.00 0.00 71 1006.2
20260506080135 62 123 0.0 0.9 0.00 0.00 0.00 71 1006.3
20260506073119 62 169 0.9 0.9 0.00 0.00 0.00 69 1006.6
20260506072615 62 118 0.0 0.9 0.00 0.00 0.00 69 1006.7
20260506072113 62 151 0.0 0.9 0.00 0.00 0.00 69 1006.7
20260506071611 62 72 0.9 0.9 0.00 0.00 0.00 68 1006.5
20260506071108 62 104 0.9 0.9 0.00 0.00 0.00 68 1006.4
20260506070605 63 107 0.0 1.7 0.00 0.00 0.00 67 1006.7
20260506062039 64 156 0.9 4.3 0.00 0.00 0.00 63 1007.0
20260506061535 64 97 0.0 1.7 0.00 0.00 0.00 63 1007.2
20260506061033 64 123 0.0 0.9 0.00 0.00 0.00 65 1007.2
20260506060531 64 50 0.9 1.7 0.00 0.00 0.00 65 1007.3
20260506051000 65 108 0.9 0.9 0.00 0.00 0.00 61 1007.2
20260506050458 65 99 0.0 1.7 0.00 0.00 0.00 61 1007.6
20260506044948 66 95 0.0 0.9 0.00 0.00 0.00 60 1007.5
20260506044446 65 128 0.0 2.6 0.00 0.00 0.00 59 1007.4
20260506043943 66 111 0.9 1.7 0.00 0.00 0.00 59 1007.5
20260506043440 66 39 0.9 1.7 0.00 0.00 0.00 59 1007.2
20260506042938 66 97 0.9 1.7 0.00 0.00 0.00 58 1007.5
20260506042437 66 134 0.0 5.2 0.00 0.00 0.00 57 1007.4
20260506041935 66 289 1.7 2.6 0.00 0.00 0.00 57 1007.6
20260506041432 66 130 0.9 2.6 0.00 0.00 0.00 57 1007.5
20260506040929 66 42 1.7 2.6 0.00 0.00 0.00 57 1007.5
20260506040427 66 59 1.7 1.7 0.00 0.00 0.00 56 1007.3
20260506035922 66 56 0.9 0.9 0.00 0.01 0.01 56 1007.3
20260506035420 67 102 0.0 0.9 0.00 0.01 0.01 56 1007.3
20260506034917 67 156 0.9 0.9 0.00 0.01 0.01 55 1007.6
20260506034414 67 130 0.9 0.9 0.00 0.01 0.01 54 1007.6
20260506033911 67 112 0.9 1.7 0.00 0.01 0.01 54 1007.2
20260506033408 67 139 0.9 1.7 0.00 0.01 0.01 53 1007.4
20260506032905 68 120 0.9 0.9 0.00 0.01 0.01 54 1007.4
20260506032402 68 157 1.7 4.3 0.00 0.01 0.01 52 1007.2
20260506031858 68 115 0.9 2.6 0.00 0.01 0.01 53 1007.4
20260506031356 68 120 0.0 2.6 0.00 0.01 0.01 52 1007.3
20260506030854 68 142 1.7 1.7 0.00 0.01 0.01 53 1007.4
20260506030352 68 95 0.0 6.1 0.00 0.01 0.01 52 1007.3
20260506025848 68 149 0.0 1.7 0.00 0.01 0.01 52 1007.4
20260506025344 68 103 0.9 1.7 0.00 0.01 0.01 52 1007.4
20260506024842 68 138 0.0 2.6 0.00 0.01 0.01 51 1007.4
20260506024338 68 175 0.9 1.7 0.00 0.01 0.01 51 1007.4
20260506023835 69 145 0.9 0.9 0.00 0.01 0.01 51 1007.5
20260506023331 69 125 0.0 0.9 0.00 0.01 0.01 50 1007.4
20260506022828 69 133 1.7 6.1 0.00 0.01 0.01 50 1007.4
20260506022326 69 117 1.7 1.7 0.00 0.01 0.01 49 1007.4
20260506021824 70 140 0.9 1.7 0.00 0.01 0.01 48 1007.3
20260506021321 70 117 0.9 2.6 0.00 0.01 0.01 47 1007.6
20260506020817 70 145 0.9 1.7 0.00 0.01 0.01 47 1007.3
20260506020315 71 128 0.9 1.7 0.00 0.01 0.01 47 1007.2
20260506015813 70 113 0.0 2.6 0.00 0.01 0.01 46 1007.3
20260506015310 71 179 0.9 1.7 0.00 0.01 0.01 46 1007.2
20260506014806 71 114 0.9 2.6 0.00 0.01 0.01 45 1007.0
20260506014303 71 91 0.9 2.6 0.00 0.01 0.01 46 1007.0
20260506013800 71 122 0.9 4.3 0.00 0.01 0.01 46 1006.8
20260506013257 71 136 0.0 0.9 0.00 0.01 0.01 46 1006.9
20260506012754 71 129 0.0 1.7 0.00 0.01 0.01 46 1006.9
20260506012251 71 105 0.0 1.7 0.00 0.01 0.01 46 1006.9
20260506011748 71 42 0.9 2.6 0.00 0.01 0.01 46 1006.6
20260506011244 70 154 0.9 1.7 0.00 0.01 0.01 46 1006.5
20260506010743 71 133 0.9 5.2 0.00 0.01 0.01 46 1006.8
20260506010239 71 141 0.9 1.7 0.00 0.01 0.01 46 1006.6
20260506005737 71 181 0.9 1.7 0.00 0.01 0.01 45 1006.7
20260506005233 71 172 2.6 4.3 0.00 0.01 0.01 44 1006.6
20260506004729 71 182 0.9 2.6 0.00 0.01 0.01 46 1006.6
20260506004227 72 101 0.9 1.7 0.00 0.01 0.01 44 1006.5
20260506003723 72 110 0.0 1.7 0.00 0.01 0.01 44 1006.4
20260506003220 73 186 1.7 2.6 0.00 0.01 0.01 43 1006.5
20260506002715 73 318 0.9 2.6 0.00 0.01 0.01 43 1006.4
20260506002212 73 77 2.6 4.3 0.00 0.01 0.01 42 1006.3
20260506001708 73 13 1.7 5.2 0.00 0.01 0.01 42 1006.2
20260506001205 73 97 0.9 6.1 0.00 0.01 0.01 43 1006.3
20260506000702 73 144 0.0 4.3 0.00 0.01 0.01 43 1006.2
20260506000200 73 93 0.9 1.7 0.00 0.01 0.01 43 1006.2
20260505235657 73 120 0.0 2.6 0.00 0.01 0.01 42 1006.1
20260505235155 73 211 1.7 4.3 0.00 0.01 0.01 43 1006.1
20260505234651 74 167 0.9 4.3 0.00 0.01 0.01 42 1006.1
20260505234149 74 296 1.7 2.6 0.00 0.01 0.01 43 1005.9
20260505233645 73 103 0.0 2.6 0.00 0.01 0.01 43 1006.1
20260505233143 74 66 0.9 0.9 0.00 0.01 0.01 43 1006.0
20260505232640 74 168 0.9 5.2 0.00 0.01 0.01 43 1006.2
20260505232138 74 149 0.0 4.3 0.00 0.01 0.01 43 1006.0
20260505231634 74 115 1.7 1.7 0.00 0.01 0.01 43 1006.1
20260505231133 74 114 0.0 1.7 0.00 0.01 0.01 43 1005.7
20260505230631 74 147 0.0 1.7 0.00 0.01 0.01 42 1005.9
20260505230127 74 136 0.0 0.9 0.00 0.01 0.01 42 1005.8
20260505225623 75 114 0.0 1.7 0.00 0.01 0.01 42 1005.6
20260505225120 74 156 1.7 4.3 0.00 0.01 0.01 41 1005.8
20260505224616 74 23 3.5 6.1 0.00 0.01 0.01 42 1005.6
20260505224114 75 114 0.9 2.6 0.00 0.01 0.01 41 1005.7
20260505223611 75 159 1.7 2.6 0.00 0.01 0.01 40 1005.7
20260505223107 75 174 0.9 5.2 0.00 0.01 0.01 41 1005.7
20260505222604 75 150 0.9 2.6 0.00 0.01 0.01 40 1005.6
20260505222100 75 116 1.7 4.3 0.00 0.01 0.01 40 1005.5
20260505221557 76 99 0.0 0.9 0.00 0.01 0.01 39 1005.6
20260505221053 76 209 1.7 4.3 0.00 0.01 0.01 39 1005.5
20260505220551 76 189 2.6 5.2 0.00 0.01 0.01 38 1005.6
20260505220048 76 122 3.5 4.3 0.00 0.01 0.01 38 1005.4
20260505215546 76 179 0.9 2.6 0.00 0.01 0.01 38 1005.4
20260505215044 76 32 2.6 7.0 0.00 0.01 0.01 38 1005.4
20260505214542 76 133 0.0 4.3 0.00 0.01 0.01 39 1005.3
20260505214038 77 157 0.9 5.2 0.00 0.01 0.01 38 1005.3
20260505213536 77 78 1.7 6.1 0.00 0.01 0.01 38 1005.2
20260505213032 77 47 1.7 2.6 0.00 0.01 0.01 38 1005.1
20260505212529 77 104 0.9 6.1 0.00 0.01 0.01 38 1005.3
20260505212026 78 161 2.6 6.1 0.00 0.01 0.01 37 1005.1
20260505211523 78 147 1.7 6.1 0.00 0.01 0.01 37 1005.1
20260505211020 78 118 0.9 5.2 0.00 0.01 0.01 38 1005.2
20260505210516 78 219 2.6 6.1 0.00 0.01 0.01 38 1004.9
20260505210014 79 152 0.9 6.1 0.00 0.01 0.01 37 1005.0
20260505205512 79 319 1.7 5.2 0.00 0.01 0.01 37 1005.1
20260505205009 80 157 3.5 5.2 0.00 0.01 0.01 36 1005.1
20260505204506 81 109 2.6 5.2 0.00 0.01 0.01 36 1004.9
20260505204003 82 56 0.9 5.2 0.00 0.01 0.01 32 1005.0
20260505203459 82 359 4.3 8.7 0.00 0.01 0.01 30 1005.0
20260505202956 82 312 2.6 6.1 0.00 0.01 0.01 28 1004.9